Liege, Belgium

6:42 AM CET on March 25, 2017 (GMT +0100)
Liege

Weather History for 06478 - October, 2012

Change the Weather History Date:

Monday, October 22, 2012

  Actual Average Record
Temperature  
Mean Temperature 64 °F -  
Max Temperature 71 °F 49 °F - ()
Min Temperature 57 °F 39 °F - ()
Degree Days  
Heating Degree Days 1    
Growing Degree Days 14 (Base 50)    
Moisture  
Dew Point 56 °F    
Average Humidity 77    
Maximum Humidity 88    
Minimum Humidity 59    
Precipitation  
Precipitation 0.00 in - - ()
Sea Level Pressure  
Sea Level Pressure 30.11 in    
Wind  
Wind Speed 5 mph ()    
Max Wind Speed 9 mph    
Max Gust Speed 22 mph    
Visibility 6.2 miles    
Events      
T = Trace of Precipitation, MM = Missing Value Source: Averaged Metar Reports

Daily Weather History Graph

Daily Weather History Graph

Search for Another Location

Airport or City:

Trip Planner

Search our weather history database for the weather conditions in past years. The results will help you decide how hot, cold, wet, or windy it might be!

Date:

Astronomy

Oct. 22, 2012 Rise Set
Actual Time 8:13 AM CEST 6:31 PM CEST
Civil Twilight 7:39 AM CEST 7:04 PM CEST
Nautical Twilight 7:01 AM CEST 7:42 PM CEST
Astronomical Twilight 6:23 AM CEST 8:20 PM CEST
Moon 3:10 PM CEST (10/22) No Moon Set
Length of Visible Light 11h 25m
Length of Day
10h 18m
First Quarter, 53% of the Moon is Illuminated
Oct 22
First Quarter
Oct 29
Full
Nov 7
Last Quarter
Nov 13
New
Nov 20
First Quarter

Hourly Weather History & Observations

Time (CEST) Temp. Dew Point Humidity Pressure Visibility Wind Dir Wind Speed Gust Speed Precip Events Conditions
12:20 AM 62.6 °F 55.4 °F 77% 30.04 in - SE 8.1 mph - N/A   Clear
12:50 AM 62.6 °F 55.4 °F 77% 30.04 in - SE 8.1 mph 21.9 mph N/A   Clear
1:20 AM 62.6 °F 55.4 °F 77% 30.04 in - SE 9.2 mph - N/A   Clear
1:50 AM 62.6 °F 55.4 °F 77% 30.06 in - SE 8.1 mph - N/A   Clear
2:00 AM 62 °F 55 °F 72% 30.06 in 6 mi SE 8.9 mph - -   Scattered Clouds
2:20 AM 62.6 °F 55.4 °F 77% 30.06 in - SSE 3.5 mph - N/A   Clear
2:50 AM 62.6 °F 55.4 °F 77% 30.06 in - Variable 2.3 mph - N/A   Clear
3:20 AM 60.8 °F 55.4 °F 82% 30.06 in - Variable 3.5 mph - N/A   Clear
3:50 AM 59.0 °F 53.6 °F 82% 30.06 in - SE 8.1 mph - N/A   Clear
4:20 AM 60.8 °F 55.4 °F 82% 30.06 in 4.3 mi SSE 9.2 mph - N/A   Unknown
4:50 AM 60.8 °F 55.4 °F 82% 30.06 in 5.0 mi SSE 6.9 mph - N/A   Unknown
5:00 AM 61 °F 55 °F 73% 30.07 in 5 mi SSE 6.7 mph - -   Scattered Clouds
5:20 AM 59.0 °F 53.6 °F 82% 30.06 in 5.0 mi SE 8.1 mph - N/A   Unknown
5:50 AM 60.8 °F 53.6 °F 77% 30.06 in 5.0 mi SE 9.2 mph - N/A   Unknown
6:20 AM 59.0 °F 53.6 °F 82% 30.06 in 5.0 mi SE 8.1 mph 21.9 mph N/A   Unknown
6:50 AM 60.8 °F 53.6 °F 77% 30.06 in - ESE 8.1 mph - N/A   Clear
7:20 AM 59.0 °F 53.6 °F 82% 30.09 in - SE 6.9 mph - N/A   Clear
7:50 AM 60.8 °F 53.6 °F 77% 30.09 in - ESE 5.8 mph - N/A   Clear
8:00 AM 60 °F 53 °F 71% 30.09 in 12 mi ESE 6.7 mph - -  
8:20 AM 59.0 °F 53.6 °F 82% 30.09 in - ESE 6.9 mph - N/A   Clear
8:50 AM 57.2 °F 53.6 °F 88% 30.09 in - SE 6.9 mph 18.4 mph N/A   Clear
9:20 AM 57.2 °F 53.6 °F 88% 30.09 in - South 3.5 mph - N/A   Clear
9:50 AM 59.0 °F 53.6 °F 82% 30.12 in - SW 4.6 mph - N/A   Clear
10:20 AM 59.0 °F 55.4 °F 88% 30.12 in - SW 3.5 mph - N/A   Clear
10:50 AM 64.4 °F 55.4 °F 73% 30.12 in - SSW 4.6 mph - N/A   Clear
11:00 AM 64 °F 55 °F 65% 30.12 in 7 mi SSW 4.5 mph - -   Partly Cloudy
11:20 AM 64.4 °F 57.2 °F 77% 30.12 in - SSE 4.6 mph - N/A   Clear
11:50 AM 64.4 °F 57.2 °F 77% 30.12 in - Variable 1.2 mph - N/A   Clear
12:20 PM 66.2 °F 57.2 °F 73% 30.12 in - Variable 2.3 mph - N/A   Clear
12:50 PM 66.2 °F 57.2 °F 73% 30.12 in - ESE 3.5 mph - N/A   Clear
1:20 PM 66.2 °F 57.2 °F 73% 30.12 in - ESE 4.6 mph - N/A   Clear
1:50 PM 68.0 °F 57.2 °F 68% 30.12 in - Variable 2.3 mph - N/A   Clear
2:00 PM 68 °F 57 °F 59% 30.12 in 7 mi ENE 2.2 mph - -   Mostly Cloudy
2:20 PM 69.8 °F 57.2 °F 64% 30.12 in - NNE 3.5 mph - N/A   Clear
2:50 PM 68.0 °F 55.4 °F 64% 30.12 in - SSE 3.5 mph - N/A   Clear
3:20 PM 71.6 °F 57.2 °F 60% 30.12 in - Variable 1.2 mph - N/A   Clear
3:50 PM 69.8 °F 59.0 °F 68% 30.12 in - NNE 4.6 mph - N/A   Clear
4:20 PM 69.8 °F 59.0 °F 68% 30.12 in - NNE 5.8 mph - N/A   Clear
4:50 PM 68.0 °F 60.8 °F 78% 30.12 in - NNE 5.8 mph - N/A   Clear
5:00 PM 68 °F 60 °F 70% 30.13 in 9 mi NNE 6.7 mph - -   Scattered Clouds
5:20 PM 68.0 °F 59.0 °F 73% 30.12 in - NNE 6.9 mph - N/A   Clear
5:50 PM 66.2 °F 59.0 °F 78% 30.12 in - NNE 6.9 mph - N/A   Clear
6:20 PM 62.6 °F 59.0 °F 88% 30.15 in - NNE 4.6 mph - N/A   Clear
6:50 PM 60.8 °F 57.2 °F 88% 30.15 in 5.6 mi NNE 5.8 mph - N/A   Unknown
7:20 PM 60.8 °F 55.4 °F 82% 30.15 in 5.6 mi Variable 2.3 mph - N/A   Unknown
7:50 PM 62.6 °F 55.4 °F 77% 30.15 in 5.6 mi ENE 6.9 mph - N/A   Unknown
8:00 PM 62 °F 55 °F 72% 30.16 in 6 mi ENE 6.7 mph - -   Scattered Clouds
8:20 PM 62.6 °F 55.4 °F 77% 30.15 in 5.6 mi East 5.8 mph - N/A   Unknown
8:50 PM 62.6 °F 55.4 °F 77% 30.15 in - Variable 1.2 mph - N/A   Clear
9:20 PM 59.0 °F 53.6 °F 82% 30.15 in - Variable 1.2 mph - N/A   Clear
9:50 PM 59.0 °F 53.6 °F 82% 30.15 in - Variable 1.2 mph - N/A   Clear
10:20 PM 60.8 °F 55.4 °F 82% 30.18 in - Variable 2.3 mph - N/A   Clear
10:50 PM 59.0 °F 53.6 °F 82% 30.18 in - Variable 1.2 mph - N/A   Clear
11:00 PM 59 °F 54 °F 79% 30.18 in 8 mi Calm Calm - -  
11:20 PM 59.0 °F 53.6 °F 82% 30.18 in - East 3.5 mph - N/A   Clear
11:50 PM 59.0 °F 53.6 °F 82% 30.18 in 5.6 mi SE 9.2 mph - N/A   Unknown